This demonstration page uses our WeatherBlox Daily Observations layout. Learn more.

Left ArrowRight Arrow

38.20091, -84.87328

Hourly Observations for June 28, 2021

Temp ( °F °C ) Dew Point ( °F °C ) Humidity (%) Winds ( mph kmh ) Pressure ( in mb ) Visibility ( mi km ) Precip ( " mm )
12:53 am 00:53 Clear 73 22.8 68 20 84 84 S 3 6 30.12 1020 10 16 0.00 0.00
1:53 am 01:53 Clear 73 22.8 68 20 84 84 Calm 30.11 1020 10 16 0.00 0.00
2:53 am 02:53 Clear 72 22.2 68 20 87 87 Calm 30.12 1020 10 16 0.00 0.00
3:53 am 03:53 Clear 71 21.7 67 19.4 87 87 Calm 30.12 1020 10 16 0.00 0.00
4:53 am 04:53 Partly Cloudy 72 22.2 69 20.6 91 91 SSE 3 6 30.13 1020 10 16 0.00 0.00
5:53 am 05:53 Clear 71 21.7 68 20 90 90 SSE 3 6 30.14 1021 10 16 0.00 0.00
6:53 am 06:53 Sunny 73 22.8 70 21.1 90 90 S 3 6 30.16 1021 10 16 0.00 0.00
7:53 am 07:53 Mostly Sunny 77 25 71 21.7 82 82 SSW 6 9 30.17 1022 10 16 0.00 0.00
8:53 am 08:53 Mostly Sunny 81 27.2 72 22.2 74 74 SSW 8 13 30.19 1022 10 16 0.00 0.00
9:53 am 09:53 Sunny 83 28.3 72 22.2 70 70 SSW 9 15 30.20 1023 10 16 0.00 0.00
10:53 am 10:53 Mostly Sunny 86 30 73 22.8 65 65 SW 10 17 30.20 1023 10 16 0.00 0.00
11:53 am 11:53 Mostly Sunny 87 30.6 73 22.8 63 63 SW 8 13 30.20 1023 10 16 0.00 0.00
12:53 pm 12:53 Mostly Sunny 88 31.1 72 22.2 59 59 S 9 15 30.19 1022 10 16 0.00 0.00
1:53 pm 13:53 Sunny 91 32.8 71 21.7 52 52 SSW 3 6 30.17 1022 10 16 0.00 0.00
2:53 pm 14:53 Partly Cloudy 91 32.8 70 21.1 50 50 SSE 8 13 30.16 1021 10 16 0.00 0.00
3:53 pm 15:53 Mostly Cloudy 90 32.2 70 21.1 52 52 S 8 13 30.15 1021 10 16 0.00 0.00
4:53 pm 16:53 Mostly Cloudy 92 33.3 70 21.1 49 49 S 9 15 30.14 1021 10 16 0.00 0.00
5:53 pm 17:53 Sunny 91 32.8 71 21.7 52 52 S 10 17 30.13 1020 10 16 0.00 0.00
6:53 pm 18:53 Sunny 91 32.8 71 21.7 52 52 S 5 7 30.12 1020 10 16 0.00 0.00
7:53 pm 19:53 Mostly Sunny 88 31.1 71 21.7 57 57 SSW 9 15 30.12 1020 10 16 0.00 0.00
8:53 pm 20:53 Sunny 86 30 72 22.2 63 63 WSW 3 6 30.13 1020 10 16 0.00 0.00
9:53 pm 21:53 Partly Cloudy 82 27.8 73 22.8 74 74 SW 3 6 30.15 1021 10 16 0.00 0.00
10:53 pm 22:53 Clear 80 26.7 72 22.2 76 76 Calm 30.16 1022 10 16 0.00 0.00
11:53 pm 23:53 Clear 77 25 72 22.2 85 85 Calm 30.18 1022 10 16 0.00 0.00

Powered by AerisWeather